NWS Melbourne » East Central Florida Hourly Weather Roundup

 

ASUS42 KMLB 121211
RWRMLB
HOURLY WEATHER ROUNDUP AROUND FLORIDA
NATIONAL WEATHER SERVICE OFFICE MELBOURNE FL
700 AM EST FRI FEB 12 2016
  
CITY           SKY/WX    TMP DP  RH WIND       PRES   REMARKS
MELBOURNE      CLEAR     46  43  89 S5        30.30R                  
FORT PIERCE    CLEAR     38  38 100 CALM      30.31R                  
ORLANDO INTL   PTCLDY    43  41  93 S3        30.30R                  
DAYTONA BEACH  PTCLDY    47  45  93 S5        30.28R                  
VERO BEACH     CLEAR     41  37  86 CALM      30.31R                  
$$
...ELSEWHERE ACROSS CENTRAL FLORIDA...
  
CITY           SKY/WX    TMP DP  RH WIND       PRES   REMARKS
PATRICK AFB    CLEAR     48  46  92 SW7       30.30R                  
KSC            CLEAR     44  42  92 S5        30.29R                  
CAPE CANAVERAL CLEAR     44  42  93 S3        30.29R                  
TITUSVILLE     CLEAR     39  39 100 S10       30.30  WCI  32          
ORLANDO EXEC   CLEAR     47  43  86 SE5       30.28R                  
LEESBURG       CLEAR     52  49  89 S6        30.28R                  
THE VILLAGES     N/A     50  50 100 CALM      30.17R                  
SANFORD        CLEAR     47  45  93 S5        30.28R                  
DELAND           N/A     46  46 100 CALM      30.28S                  
NEW SMYRNA BCH CLEAR     48  46  93 SW5       30.26                   
ORMOND BEACH   CLEAR     46  46 100 SW6       30.26                   
WINTER HAVEN   PTCLDY    48  47  96 S5        30.31R FOG              
KISSIMMEE      CLEAR     45  45 100 CALM      30.30                   
OKEECHOBEE     PTCLDY    39  37  93 CALM      30.31R                  
TAMPA          CLEAR     53  52  96 S5        30.30R                  
$$
...NORTHERN FLORIDA...
  
CITY           SKY/WX    TMP DP  RH WIND       PRES   REMARKS
ST AUGUSTINE   CLEAR     49  48  97 S6        30.25R                  
GAINESVILLE    CLEAR     47  45  93 S3        30.23R                  
JACKSONVILLE   PTCLDY    50  49  96 SW7       30.21R                  
TALLAHASSEE    FOG       45  43  93 CALM      30.20R VSB 3/4          
$$
...ALONG THE SOUTHEAST COAST TO THE KEYS...
  
CITY           SKY/WX    TMP DP  RH WIND       PRES   REMARKS
STUART         CLEAR     48  41  76 CALM      30.31S                  
WEST PALM BCH  PTCLDY    50  42  74 NW3       30.30R                  
MIAMI          PTCLDY    57  44  62 N3        30.30R                  
KEY WEST       MOCLDY    63  59  87 NE8       30.27R                  
$$
...MARINE REPORTS...
  
STATION/POSITION TIME  TEMP    WIND        PRES    WAVE   SWELL
                       AIR SEA DIR/SP/G            HT/PER HT/PER
                 (UTC) (F)     (DEG/KT/KT) (MB)    (FT/S) (FT/S)
ST AUGUSTINE FP  1200   50 56  200/  5/  7 1024.8R
20NM E CAPE CANA 1150   62 74  260/  8/ 10 1026.1R   2/13   2/13
120 E NEW SMYRNA 1150   67 72              1025.5R   3/10   2/10
TRIDENT PIER     1148   51 62  200/  5/  6 1025.8R
SEBASTIAN INLET  1200   53 56  250/  3     1027.0
4NM E PORT CANAV 1140      63                N/A     1/13
6NM NE FPR INLET 1151      67                N/A     2/13   2/13
SETTLEMENT PT GB 1200   63      90/  8/  9 1026.5R
$$
  
 

 

Link to: East Central Florida Hourly Weather Roundup


USA.gov is the U.S. government's official web portal to all federal, state and local government web resources and services.